User: anonymous   Login
Location: A O Calhoun Middle School
(33.2198°N, 97.1397°W)
Time: 04:40:55
(UTC+00:00)
Language:

Meteor 1-25 Rocket - Orbit

View from above orbital plane
View from above orbital plane
View from above satellite
View from above satellite

Ground track
Ground track

The orbit data is extracted from the following two-line orbital elements,

1 08846U 76043B   22148.56148859 -.00000092  00000-0 -60180-4 0  9991
2 08846  81.2228 354.0269 0037265 320.8051  39.0421 14.08626510365075
Epoch (UTC): 28 May 2022 13:28:32
Eccentricity: 0.0037265
inclination: 81.2228°
perigee height: 837 km
apogee height: 891 km
right ascension of ascending node: 354.0269°
argument of perigee: 320.8051°
revolutions per day: 14.08626510
mean anomaly at epoch: 39.0421°
orbit number at epoch: 36507

The dashed part of the orbit path shows where the satellite is in the earth's shadow,  

DLR